Location: Hartford
(41.7640°N, 72.6860°W)
Time: 19:48:01
(UTC-05:00)

ISS - All Passes

Search period start: 16 January 2017 00:00
Search period end: 26 January 2017 00:00
Orbit: 400 x 410 km, 51.6° (Epoch: 17 January)

Date Brightness Start Highest point End Pass type
(mag) Time Alt. Az. Time Alt. Az. Time Alt. Az.
16 Jan - 00:28:35 10° WSW 00:31:47 57° NNW 00:35:00 10° NE night (unlit)
16 Jan - 02:06:31 10° WNW 02:08:48 17° NNW 02:11:05 10° NNE night (unlit)
16 Jan - 03:44:10 10° NNW 03:46:14 16° N 03:48:17 10° NE visible
16 Jan - 05:20:18 10° NW 05:23:22 39° NNE 05:26:28 10° E visible
16 Jan - 06:56:58 10° WNW 06:59:45 26° SW 07:02:32 10° SSE daylight
16 Jan - 23:36:23 10° SW 23:39:37 78° SE 23:42:52 10° ENE night (unlit)
17 Jan - 01:13:48 10° WNW 01:16:24 22° NNW 01:19:01 10° NE night (unlit)
17 Jan - 02:51:53 10° NW 02:53:46 14° N 02:55:41 10° NE night (unlit)
17 Jan - 04:28:16 10° NW 04:31:05 26° NNE 04:33:54 10° E visible
17 Jan - 06:04:33 10° WNW 06:07:43 51° SW 06:10:53 10° SE visible
17 Jan - 22:44:27 10° SSW 22:47:31 39° SE 22:50:36 10° ENE night (unlit)
18 Jan - 00:21:08 10° W 00:24:04 30° NNW 00:26:59 10° NE night (unlit)
18 Jan - 01:59:22 10° NW 02:01:19 15° N 02:03:14 10° NNE night (unlit)
18 Jan - 03:36:14 10° NNW 03:38:42 20° NNE 03:41:11 10° ENE visible
18 Jan - 05:12:19 10° NW 05:15:35 83° NNE 05:18:50 10° ESE visible
18 Jan - 06:50:34 10° WSW 06:51:36 11° SW 06:52:39 10° SSW daylight
18 Jan - 21:52:57 10° S 21:55:29 21° SE 21:58:01 10° E night (unlit)
18 Jan - 23:28:37 10° WSW 23:31:46 46° NNW 23:34:55 10° NE night (unlit)
19 Jan - 01:06:41 10° NW 01:08:50 16° N 01:11:00 10° NNE night (unlit)
19 Jan - 02:44:07 10° NNW 02:46:17 16° N 02:48:26 10° NE night (unlit)
19 Jan - 04:20:12 10° NW 04:23:21 46° NNE 04:26:31 10° ESE visible
19 Jan - 05:57:06 10° W 05:59:38 21° SW 06:02:10 10° S visible
19 Jan - 21:02:28 10° SSE 21:03:31 11° SE 21:04:33 10° ESE night (unlit)
19 Jan - 22:36:17 10° WSW 22:39:32 83° NW 22:42:48 10° NE night (unlit)
20 Jan - 00:13:55 10° WNW 00:16:24 20° NNW 00:18:53 10° NNE night (unlit)
20 Jan - 01:51:52 10° NNW 01:53:48 15° N 01:55:44 10° NE night (unlit)
20 Jan - 03:28:08 10° NW 03:31:03 30° NNE 03:33:58 10° E night (unlit)
20 Jan - 05:04:31 10° WNW 05:07:35 39° SW 05:10:39 10° SSE visible
20 Jan - 21:44:12 10° SW 21:47:22 50° SE 21:50:32 10° ENE night (unlit)
20 Jan - 23:21:10 10° W 23:24:00 26° NNW 23:26:49 10° NE night (unlit)
21 Jan - 00:59:23 10° NW 01:01:18 14° N 01:03:12 10° NE night (unlit)
21 Jan - 02:36:04 10° NW 02:38:40 22° NNE 02:41:16 10° ENE night (unlit)
21 Jan - 04:12:12 10° WNW 04:15:27 79° SW 04:18:42 10° SE visible
21 Jan - 20:52:29 10° SSW 20:55:16 26° SE 20:58:03 10° ENE night (unlit)
21 Jan - 22:28:33 10° W 22:31:38 39° NNW 22:34:43 10° NE night (unlit)
22 Jan - 00:06:43 10° NW 00:08:47 16° N 00:10:51 10° NNE night (unlit)
22 Jan - 01:43:56 10° NNW 01:46:12 17° NNE 01:48:29 10° ENE night (unlit)
22 Jan - 03:20:01 10° NW 03:23:13 56° NNE 03:26:25 10° ESE night (unlit)
22 Jan - 04:57:13 10° W 04:59:24 17° SW 05:01:35 10° S visible
22 Jan - 20:01:24 10° SSE 20:03:13 14° SE 20:05:02 10° E night (unlit)
22 Jan - 21:36:06 10° WSW 21:39:20 67° NNW 21:42:35 10° NE night (unlit)
22 Jan - 23:13:55 10° WNW 23:16:17 18° NNW 23:18:39 10° NNE night (unlit)
23 Jan - 00:51:42 10° NNW 00:53:42 15° N 00:55:42 10° NE night (unlit)
23 Jan - 02:27:52 10° NW 02:30:54 34° NNE 02:33:54 10° E night (unlit)
23 Jan - 04:04:25 10° WNW 04:07:20 31° SW 04:10:15 10° SSE night (unlit)
23 Jan - 20:43:53 10° SW 20:47:06 65° SE 20:50:20 10° ENE night (unlit)
23 Jan - 22:21:07 10° WNW 22:23:49 23° NNW 22:26:31 10° NE night (unlit)
23 Jan - 23:59:16 10° NW 00:01:09 14° N 00:03:03 10° NE night (unlit)
24 Jan - 01:35:46 10° NW 01:38:29 24° NNE 01:41:12 10° ENE night (unlit)
24 Jan - 03:11:58 10° WNW 03:15:11 62° SW 03:18:24 10° SE night (unlit)
24 Jan - 19:51:58 10° SSW 19:54:56 33° SE 19:57:55 10° ENE night (unlit)
24 Jan - 21:28:24 10° W 21:31:24 33° NNW 21:34:25 10° NE night (unlit)
24 Jan - 23:06:37 10° NW 23:08:36 15° N 23:10:35 10° NNE night (unlit)
25 Jan - 00:43:38 10° NNW 00:46:01 18° NNE 00:48:23 10° ENE night (unlit)
25 Jan - 02:19:41 10° NW 02:22:57 70° NE 02:26:10 10° ESE night (unlit)
25 Jan - 03:57:21 10° W 03:59:02 13° SW 04:00:42 10° SSW night (unlit)
25 Jan - 19:00:33 10° S 19:02:50 18° SE 19:05:07 10° E visible
25 Jan - 20:35:50 10° WSW 20:39:02 54° NNW 20:42:15 10° NE night (unlit)
25 Jan - 22:13:48 10° NW 22:16:03 17° NNW 22:18:18 10° NNE night (unlit)
25 Jan - 23:51:24 10° NNW 23:53:29 16° N 23:55:34 10° NE night (unlit)
